MDT,Max TemperatureF,Mean TemperatureF,Min TemperatureF,Max Dew PointF,MeanDew PointF,Min DewpointF,Max Humidity, Mean Humidity, Min Humidity, Max Sea Level PressureIn, Mean Sea Level PressureIn, Min Sea Level PressureIn, Max VisibilityMiles, Mean VisibilityMiles, Min VisibilityMiles, Max Wind SpeedMPH, Mean Wind SpeedMPH, Max Gust SpeedMPH,PrecipitationIn, CloudCover, Events, WindDirDegrees
2012-10-1,78,58,37,34,30,27,64,41,18,30.35,30.17,30.01,10,10,6,8,2,9,0.00,0,,3
2012-10-2,78,58,37,35,25,13,64,38,12,30.00,29.88,29.77,10,10,5,22,6,28,0.00,1,,261
2012-10-3,57,45,33,19,11,1,44,29,14,30.27,30.09,29.78,10,10,10,23,9,30,0.00,0,,341
2012-10-4,56,39,22,16,13,10,60,39,18,30.30,30.21,30.08,10,10,10,15,3,17,0.00,0,,343
2012-10-5,55,38,21,18,12,6,68,42,16,30.33,30.24,30.14,10,10,8,12,3,16,0.00,0,,349
2012-10-6,57,39,20,12,9,5,52,31,10,30.38,30.27,30.17,10,10,10,9,2,14,0.00,0,,8
2012-10-7,63,43,22,15,11,6,55,35,14,30.31,30.16,30.00,10,10,10,7,1,8,0.00,0,,175
2012-10-8,67,46,24,17,12,8,55,34,12,30.09,29.98,29.82,10,10,2,10,2,15,0.00,0,,345
2012-10-9,66,47,27,21,16,9,46,32,18,30.12,30.01,29.94,10,10,7,8,1,10,0.00,0,,315
2012-10-10,71,49,27,23,19,15,63,39,14,30.09,29.96,29.79,10,10,8,7,1,10,0.00,0,,80
2012-10-11,70,51,31,24,19,15,53,34,15,30.05,29.94,29.83,10,9,2,8,2,9,0.00,0,,3
2012-10-12,74,52,30,29,19,13,51,32,13,29.99,29.86,29.70,10,8,1,13,2,17,0.00,0,,280
2012-10-13,64,51,38,35,27,17,60,42,24,30.24,30.00,29.83,10,10,4,21,6,25,T,3,,323
2012-10-14,69,50,31,33,28,24,75,47,18,30.35,30.18,30.01,10,10,8,16,3,22,0.00,0,,262
2012-10-15,66,54,42,37,33,27,58,43,28,29.99,29.90,29.80,10,10,10,21,6,28,0.00,5,,214
2012-10-16,61,48,34,44,25,5,71,43,14,30.01,29.71,29.54,10,10,9,35,12,51,0.06,4,Rain-Snow,254
2012-10-17,56,42,27,17,13,7,53,34,15,30.26,30.14,30.01,10,10,9,13,4,16,T,1,Snow,229
2012-10-18,60,42,24,22,17,12,63,41,18,30.40,30.27,30.14,10,10,8,6,1,7,0.00,0,Snow,259
2012-10-19,62,45,28,36,28,20,75,56,36,30.12,29.96,29.69,10,10,9,17,4,23,0.00,3,Snow,216
2012-10-20,58,47,35,39,25,18,79,51,22,29.75,29.67,29.57,10,7,2,26,8,37,0.00,1,,250
2012-10-21,55,41,26,25,19,9,75,46,16,29.87,29.79,29.70,10,7,2,20,3,25,0.00,1,,273
2012-10-22,44,36,27,32,23,17,70,57,44,29.79,29.67,29.52,10,10,10,21,3,25,0.00,5,,250
2012-10-23,43,31,19,26,17,11,75,55,34,30.01,29.83,29.74,10,9,2,22,4,29,0.00,3,,259
2012-10-24,43,28,13,21,11,6,74,48,22,30.14,30.06,29.99,10,10,10,15,1,17,T,3,,212
2012-10-25,43,34,24,27,24,21,92,66,40,30.43,30.21,30.08,10,8,2,17,2,21,0.04,7,Snow,334
2012-10-26,36,25,14,28,21,9,92,68,44,30.49,30.29,30.13,10,7,0,10,2,14,0.21,5,Fog-Snow,359
2012-10-27,36,29,21,31,25,20,92,85,78,30.21,30.14,30.10,10,5,0,7,1,8,0.01,7,Fog-Rain,341
2012-10-28,59,47,34,44,36,31,96,67,37,30.12,30.05,29.95,10,10,10,16,2,20,0.04,8,Rain,295
2012-10-29,64,53,41,43,37,29,89,58,27,30.11,30.03,29.97,10,10,10,21,6,28,0.03,6,Rain,241
2012-10-30,64,49,34,36,33,31,89,61,32,30.15,30.08,29.99,10,10,10,12,1,15,0.00,2,,252
2012-10-31,65,49,32,34,30,27,89,57,25,30.12,29.99,29.84,10,10,10,15,2,21,0.00,0,,172